OM6ACB-6 Weather Reports


time (UTC)temp
C
wind
direction
speed
KPH
gust
KPH
rain 1hr
cm
rain 24hr
cm
rain mn
cm
humidity
%
barometer
mb
20260507231636 9 0 0.0 0.0 0.00 0.00 0.00 61 1016.9
20260507230636 9 0 0.0 0.0 0.00 0.00 0.00 59 1016.9
20260507225636 10 0 0.0 0.0 0.00 0.00 0.00 56 1017.2
20260507224635 10 0 0.0 0.0 0.00 0.00 0.00 55 1017.3
20260507223635 11 0 0.0 0.0 0.00 0.00 0.00 53 1017.3
20260507222635 11 0 0.0 0.0 0.00 0.00 0.00 54 1017.3
20260507221634 11 0 0.0 0.0 0.00 0.00 0.00 54 1017.2
20260507220634 10 0 0.0 0.0 0.00 0.00 0.00 53 1017.1
20260507215634 10 0 0.0 0.0 0.00 0.00 0.00 59 1017.1
20260507214633 11 90 0.0 0.0 0.00 0.00 0.00 60 1017.0
20260507213633 11 0 0.0 0.0 0.00 0.00 0.00 60 1017.0
20260507212633 11 0 0.0 0.0 0.00 0.00 0.00 59 1017.0
20260507211633 11 0 0.0 0.0 0.00 0.00 0.00 56 1017.1
20260507210632 11 0 0.0 0.0 0.00 0.00 0.00 56 1016.9
20260507205632 10 0 0.0 0.0 0.00 0.00 0.00 53 1016.8
20260507204632 11 0 0.0 0.0 0.00 0.00 0.00 51 1016.9
20260507203631 11 0 0.0 0.0 0.00 0.00 0.00 49 1016.8
20260507202631 11 0 0.0 0.0 0.00 0.00 0.00 47 1016.9
20260507201631 11 0 0.0 0.0 0.00 0.00 0.00 46 1016.9
20260507200631 11 0 0.0 0.0 0.00 0.00 0.00 45 1016.8
20260507195631 11 0 0.0 0.0 0.00 0.00 0.00 44 1016.7
20260507194630 11 0 0.0 0.0 0.00 0.00 0.00 43 1016.7
20260507193630 11 0 0.0 0.0 0.00 0.00 0.00 40 1016.7
20260507192629 12 0 0.0 0.0 0.00 0.00 0.00 39 1016.6
20260507191629 12 0 0.0 0.0 0.00 0.00 0.00 37 1016.5
20260507190629 12 90 0.0 1.6 0.00 0.00 0.00 33 1016.6
20260507185628 12 90 0.0 0.0 0.00 0.00 0.00 32 1016.4
20260507184628 12 90 0.0 1.6 0.00 0.00 0.00 32 1016.3
20260507183628 12 90 0.0 1.6 0.00 0.00 0.00 29 1016.2
20260507182628 12 0 0.0 0.0 0.00 0.00 0.00 28 1016.2
20260507181627 12 0 0.0 0.0 0.00 0.00 0.00 27 1016.2
20260507180627 12 90 3.2 6.4 0.00 0.00 0.00 26 1016.1
20260507175627 13 88 6.4 6.4 0.00 0.00 0.00 26 1016.0
20260507174626 13 56 3.2 4.8 0.00 0.00 0.00 27 1016.0
20260507173626 13 92 3.2 6.4 0.00 0.00 0.00 28 1016.0
20260507172626 13 101 3.2 6.4 0.00 0.00 0.00 27 1015.9
20260507171626 13 15 6.4 9.7 0.00 0.00 0.00 27 1015.9
20260507170625 13 40 4.8 6.4 0.00 0.00 0.00 26 1015.9
20260507165627 14 49 4.8 6.4 0.00 0.00 0.00 25 1016.0
20260507164625 17 79 3.2 6.4 0.00 0.00 0.00 24 1016.3
20260507163624 15 68 1.6 6.4 0.00 0.00 0.00 25 1016.0
20260507162624 14 45 0.0 6.4 0.00 0.00 0.00 25 1015.8
20260507161624 14 135 0.0 3.2 0.00 0.00 0.00 25 1015.7
20260507160624 14 115 1.6 6.4 0.00 0.00 0.00 25 1015.7
20260507155623 13 95 4.8 8.0 0.00 0.00 0.00 25 1015.6
20260507154623 14 106 3.2 6.4 0.00 0.00 0.00 25 1015.6
20260507153623 14 116 6.4 9.7 0.00 0.00 0.00 25 1015.7
20260507152622 15 185 3.2 8.0 0.00 0.00 0.00 25 1015.9
20260507151622 17 247 4.8 9.7 0.00 0.00 0.00 24 1015.9
20260507150622 17 204 4.8 6.4 0.00 0.00 0.00 24 1015.9
20260507145621 18 242 1.6 4.8 0.00 0.00 0.00 23 1016.1
20260507144621 18 261 8.0 12.9 0.00 0.00 0.00 23 1016.0
20260507143621 18 222 4.8 8.0 0.00 0.00 0.00 23 1016.0
20260507142621 18 238 4.8 8.0 0.00 0.00 0.00 23 1015.9
20260507141620 17 250 6.4 11.3 0.00 0.00 0.00 24 1015.9
20260507140620 17 237 6.4 12.9 0.00 0.00 0.00 24 1015.9
20260507135620 18 252 6.4 9.7 0.00 0.00 0.00 23 1016.1
20260507134619 18 225 4.8 8.0 0.00 0.00 0.00 23 1016.1
20260507133619 18 253 3.2 6.4 0.00 0.00 0.00 23 1016.1
20260507132619 18 244 4.8 8.0 0.00 0.00 0.00 23 1016.2
20260507131619 18 215 6.4 9.7 0.00 0.00 0.00 23 1016.2
20260507130618 18 246 4.8 6.4 0.00 0.00 0.00 23 1016.2
20260507125618 18 238 4.8 6.4 0.00 0.00 0.00 23 1016.3
20260507124618 18 194 4.8 6.4 0.00 0.00 0.00 23 1016.5
20260507123617 18 228 4.8 6.4 0.00 0.00 0.00 23 1016.3
20260507122617 17 230 3.2 6.4 0.00 0.00 0.00 24 1016.1
20260507121617 15 243 6.4 9.7 0.00 0.00 0.00 25 1016.0
20260507120616 16 262 6.4 9.7 0.00 0.00 0.00 24 1016.0
20260507115616 16 214 6.4 8.0 0.00 0.00 0.00 24 1016.0
20260507114616 17 239 8.0 9.7 0.00 0.00 0.00 24 1015.9
20260507113616 19 238 4.8 16.1 0.00 0.00 0.00 23 1016.2
20260507112615 19 296 1.6 6.4 0.00 0.00 0.00 23 1016.2
20260507111615 18 286 4.8 6.4 0.00 0.00 0.00 23 1016.1
20260507110615 19 228 3.2 11.3 0.00 0.00 0.00 23 1016.1
20260507105614 19 243 4.8 8.0 0.00 0.00 0.00 23 1015.9
20260507104614 20 247 4.8 9.7 0.00 0.00 0.00 23 1016.1
20260507103614 19 247 4.8 11.3 0.00 0.00 0.00 23 1016.0
20260507102614 20 252 6.4 12.9 0.00 0.00 0.00 22 1016.1
20260507101613 21 263 6.4 11.3 0.00 0.00 0.00 22 1016.3
20260507100613 21 267 3.2 8.0 0.00 0.00 0.00 22 1016.2
20260507095613 21 259 4.8 6.4 0.00 0.00 0.00 22 1016.2
20260507094612 19 247 9.7 14.5 0.00 0.00 0.00 23 1015.9
20260507093612 18 240 4.8 14.5 0.00 0.00 0.00 23 1015.9
20260507092612 20 268 6.4 8.0 0.00 0.00 0.00 22 1015.9
20260507091612 18 216 6.4 11.3 0.00 0.00 0.00 23 1015.7
20260507090611 19 243 6.4 11.3 0.00 0.00 0.00 23 1015.7
20260507085611 19 246 4.8 6.4 0.00 0.00 0.00 23 1015.7
20260507084611 19 108 3.2 6.4 0.00 0.00 0.00 23 1015.7
20260507083610 18 244 3.2 6.4 0.00 0.00 0.00 23 1015.5
20260507082610 18 232 8.0 12.9 0.00 0.00 0.00 23 1015.5
20260507081610 20 240 6.4 9.7 0.00 0.00 0.00 23 1015.5
20260507080609 18 222 4.8 9.7 0.00 0.00 0.00 23 1015.3
20260507075609 18 288 1.6 6.4 0.00 0.00 0.00 23 1015.2
20260507074609 17 246 4.8 12.9 0.00 0.00 0.00 24 1015.1
20260507073609 17 234 3.2 12.9 0.00 0.00 0.00 24 1015.0
20260507072608 19 253 3.2 6.4 0.00 0.00 0.00 23 1014.9
20260507071608 18 211 1.6 3.2 0.00 0.00 0.00 23 1014.8
20260507070608 18 252 3.2 8.0 0.00 0.00 0.00 23 1014.7
20260507065607 17 280 3.2 6.4 0.00 0.00 0.00 24 1014.6
20260507064607 17 259 3.2 4.8 0.00 0.00 0.00 24 1014.5
20260507063607 17 262 6.4 8.0 0.00 0.00 0.00 24 1014.6
20260507062607 17 270 3.2 8.0 0.00 0.00 0.00 24 1014.4
20260507061606 17 258 3.2 8.0 0.00 0.00 0.00 24 1014.4
20260507060606 16 270 3.2 8.0 0.00 0.00 0.00 24 1014.3
20260507055606 17 298 6.4 8.0 0.00 0.00 0.00 24 1014.2
20260507054605 17 246 3.2 8.0 0.00 0.00 0.00 24 1014.3
20260507053605 16 265 3.2 6.4 0.00 0.00 0.00 24 1014.0
20260507052605 17 0 0.0 0.0 0.00 0.00 0.00 24 1013.9
20260507051605 15 0 0.0 0.0 0.00 0.00 0.00 25 1013.6
20260507050604 15 0 0.0 0.0 0.00 0.00 0.00 25 1013.5
20260507045604 15 314 0.0 1.6 0.00 0.00 0.00 25 1013.5
20260507044608 15 281 1.6 6.4 0.00 0.00 0.00 25 1013.4
20260507043603 15 313 3.2 4.8 0.00 0.00 0.00 25 1013.4
20260507042603 15 327 4.8 8.0 0.00 0.00 0.00 25 1013.3
20260507041603 -31 1 4.8 4.8 0.00 0.00 0.00 13 946.3
20260507040603 -31 1 4.8 4.8 0.00 0.00 0.00 13 946.3
20260507035602 -31 1 4.8 4.8 0.00 0.00 0.00 13 946.2
20260507034602 -31 1 4.8 4.8 0.00 0.00 0.00 13 946.1
20260507033602 -31 1 4.8 4.8 0.00 0.00 0.00 13 946.0
20260507032601 15 1 4.8 4.8 0.00 0.00 0.00 25 1012.9
20260507031601 15 1 4.8 4.8 0.00 0.00 0.00 25 1012.9
20260507030601 15 1 4.8 4.8 0.00 0.00 0.00 25 1012.8
20260507025600 15 1 4.8 4.8 0.00 0.00 0.00 25 1012.8
20260507024600 15 1 4.8 4.8 0.00 0.00 0.00 25 1012.9
20260507023600 15 1 4.8 4.8 0.00 0.00 0.00 25 1012.9
20260507022600 15 1 4.8 4.8 0.00 0.00 0.00 25 1013.0
20260507021559 15 1 4.8 4.8 0.00 0.00 0.00 25 1013.0
20260507020559 15 1 4.8 4.8 0.00 0.00 0.00 25 1012.9
20260507015559 15 351 4.8 6.4 0.00 0.00 0.00 25 1012.8
20260507014558 15 315 3.2 3.2 0.00 0.00 0.00 25 1012.5
20260507013558 14 315 3.2 3.2 0.00 0.00 0.00 25 1012.4
20260507012558 14 272 4.8 4.8 0.00 0.00 0.00 25 1012.4
20260507011558 14 270 4.8 4.8 0.00 0.00 0.00 25 1012.4
20260507010557 14 270 4.8 6.4 0.00 0.00 0.00 25 1012.3
20260507005557 14 270 6.4 6.4 0.00 0.00 0.00 25 1012.2
20260507004557 14 270 6.4 6.4 0.00 0.00 0.00 25 1012.2
20260507003556 14 270 6.4 6.4 0.00 0.00 0.00 25 1012.1
20260507002556 14 270 6.4 6.4 0.00 0.00 0.00 25 1012.2
20260507001556 14 270 6.4 6.4 0.00 0.00 0.00 25 1012.2
20260507000555 14 90 1.6 6.4 0.00 0.00 0.00 25 1012.2
20260506235555 14 254 1.6 3.2 0.00 0.00 0.00 25 1012.2
20260506234555 15 246 4.8 6.4 0.00 0.00 0.00 25 1012.3
20260506233555 15 181 4.8 4.8 0.00 0.00 0.00 25 1012.4
20260506232554 15 174 4.8 4.8 0.00 0.00 0.00 25 1012.4